Time,TemperatureF,DewpointF,PressureIn,WindDirection,WindDirectionDegrees,WindSpeedMPH,WindSpeedGustMPH,Humidity,HourlyPrecipIn,Conditions,Clouds,dailyrainin,SoftwareType,DateUTC
2013-06-26 00:00:00,41.0,41.0,-100.00,WNW,293,1.0,7.0,100,-99.99,,,-99.99,,2013-06-26 07:00:00,
2013-06-26 01:00:00,41.0,41.0,-100.00,NW,306,3.0,8.0,100,-99.99,,,-99.99,,2013-06-26 08:00:00,
2013-06-26 01:53:00,41.0,41.0,-100.00,NW,306,3.0,8.0,100,-99.99,,,-99.99,,2013-06-26 08:53:00,
2013-06-26 02:00:00,41.0,41.0,-100.00,NW,308,2.0,7.0,100,-99.99,,,-99.99,,2013-06-26 09:00:00,
2013-06-26 03:00:00,41.0,41.0,-100.00,WNW,298,2.0,9.0,100,-99.99,,,-99.99,,2013-06-26 10:00:00,
2013-06-26 04:00:00,42.0,42.0,-100.00,WNW,293,1.0,5.0,100,-99.99,,,-99.99,,2013-06-26 11:00:00,
2013-06-26 05:00:00,42.0,42.0,-100.00,WSW,257,2.0,12.0,100,-99.99,,,-99.99,,2013-06-26 12:00:00,
2013-06-26 06:00:00,42.0,42.0,-100.00,WNW,286,2.0,9.0,100,-99.99,,,-99.99,,2013-06-26 13:00:00,
2013-06-26 07:00:00,43.0,43.0,-100.00,West,269,1.0,5.0,100,-99.99,,,-99.99,,2013-06-26 14:00:00,
2013-06-26 08:00:00,43.0,43.0,-100.00,WNW,290,1.0,3.0,100,-99.99,,,-99.99,,2013-06-26 15:00:00,
2013-06-26 09:00:00,43.0,43.0,-100.00,WNW,290,1.0,7.0,100,-99.99,,,-99.99,,2013-06-26 16:00:00,
2013-06-26 10:00:00,43.0,43.0,-100.00,WNW,288,1.0,6.0,100,-99.99,,,-99.99,,2013-06-26 17:00:00,
2013-06-26 11:00:00,44.0,44.0,-100.00,WNW,289,2.0,7.0,100,-99.99,,,-99.99,,2013-06-26 18:00:00,
2013-06-26 11:52:00,44.0,44.0,-100.00,WNW,289,2.0,7.0,100,-99.99,,,-99.99,,2013-06-26 18:52:00,
2013-06-26 12:00:00,45.0,45.0,-100.00,WNW,302,2.0,6.0,100,-99.99,,,-99.99,,2013-06-26 19:00:00,
2013-06-26 13:00:00,46.0,46.0,-100.00,West,275,1.0,10.0,100,-99.99,,,-99.99,,2013-06-26 20:00:00,
2013-06-26 14:00:00,47.0,46.0,-100.00,NW,315,1.0,5.0,98,-99.99,,,-99.99,,2013-06-26 21:00:00,
2013-06-26 15:00:00,45.0,45.0,-100.00,NW,321,3.0,12.0,100,-99.99,,,-99.99,,2013-06-26 22:00:00,
2013-06-26 16:00:00,45.0,45.0,-100.00,NW,322,5.0,12.0,100,-99.99,,,-99.99,,2013-06-26 23:00:00,
2013-06-26 16:53:00,45.0,45.0,-100.00,NW,322,5.0,12.0,100,-99.99,,,-99.99,,2013-06-26 23:53:00,
2013-06-26 17:00:00,45.0,45.0,-100.00,NNW,328,6.0,12.0,100,-99.99,,,-99.99,,2013-06-27 00:00:00,
2013-06-26 18:00:00,45.0,45.0,-100.00,WNW,303,3.0,12.0,100,-99.99,,,-99.99,,2013-06-27 01:00:00,
2013-06-26 18:53:00,45.0,45.0,-100.00,WNW,303,3.0,12.0,100,-99.99,,,-99.99,,2013-06-27 01:53:00,
2013-06-26 19:00:00,46.0,46.0,-100.00,NW,317,5.0,12.0,100,-99.99,,,-99.99,,2013-06-27 02:00:00,
2013-06-26 19:52:00,46.0,46.0,-100.00,NW,317,5.0,12.0,100,-99.99,,,-99.99,,2013-06-27 02:52:00,
2013-06-26 20:00:00,45.0,45.0,-100.00,NW,320,5.0,14.0,100,-99.99,,,-99.99,,2013-06-27 03:00:00,
2013-06-26 20:52:00,45.0,45.0,-100.00,NW,320,5.0,14.0,100,-99.99,,,-99.99,,2013-06-27 03:52:00,
2013-06-26 21:00:00,44.0,44.0,-100.00,NW,314,6.0,13.0,100,-99.99,,,-99.99,,2013-06-27 04:00:00,
2013-06-26 22:00:00,45.0,45.0,-100.00,NNW,332,7.0,12.0,100,-99.99,,,-99.99,,2013-06-27 05:00:00,
2013-06-26 22:53:00,45.0,45.0,-100.00,NNW,332,7.0,12.0,100,-99.99,,,-99.99,,2013-06-27 05:53:00,
2013-06-26 23:00:00,45.0,45.0,-100.00,North,350,2.0,9.0,100,-99.99,,,-99.99,,2013-06-27 06:00:00,
2013-06-26 23:53:00,45.0,45.0,-100.00,North,350,2.0,9.0,100,-99.99,,,-99.99,,2013-06-27 06:53:00,